FENGYUN 1C DEB, 29898

Orbit data source: Space-Track

FENGYUN 1C DEB, 29898 is space debris in SSO originally from a launch on Mon, 10 May 1999 UTC launched from the Taiyaun Space Center, China (TSC). Fengyun 1C debris stems from the Chinese weather satellite Fengyun-1C, which was intentionally destroyed by a Chinese anti-satellite missile in 2007. This event dramatically increased the amount of space debris, with thousands of trackable fragments posing hazards to satellites and human spaceflight. The Fengyun 1C debris cloud has become a focal point in discussions about space sustainability and the need for international regulations to prevent the creation of new debris.

Loading next visibility...
Identifier
29898, 1999-025GU
Orbit
SSO
Country
Flag of CNCN / PRC
Related business
Manufacturer
Unknown
Mission
Spacecraft
Bus & Motor
Unknown
Mass
Unknown
Launch date (UTC)
1999-05-10 (27 years ago)
Launch vehicle
Unknown
Launch site
Taiyaun Space Center, China (TSC)
Object type
Payload
Rocket body
Debris
Shape & HBR
Unknown shape, 0.1 m
Radar Cross Section
Medium (>0.1 m² and <1 m²)

Expand to show TLE details & history
Last TLE update: 23 hours ago

TLE from 23 hours ago
0 FENGYUN 1C DEB
1 29898U 99025GU  26262.38410711  .00001733  00000-0  10257-2 0  9995
2 29898  98.2377 220.8495 0419324 150.5468   0.7629 13.72479418970080
Epoch: 2026-09-19T09:13Z
TLE epoch observation values (Epoch: 2026-09-19T09:13:06.854Z)
Latitude
28.34753°
Longitude
-91.26708°
Altitude
685.114 km
Speed
7.672 km/s
True Right ascension
03h 01m 13s
True Declination
28° 12' 09"
Sunlit
Object was in full shadow at epoch
Visualization orbit readout
Latitude
Unknown
Longitude
Unknown
Altitude
Unknown
Speed
Unknown
Apparent Right ascension
Unknown
Apparent Declination
Unknown
Sunlit
N/A
Visualization observer readout
Local Sidereal Time
01:28:00
Azimuth
Unknown
Elevation
Unknown
Doppler factor
Unknown
Orbital elements
Apogee altitude
1,296.751 km
Perigee altitude
679.002 km
Semi-major axis
7,366.014 km
Eccentricity
0.04193
Inclination
98.2377°
RAAN
220.8495°
Arg. of periapsis
150.5468°
True anomaly
0.83041°
Mean anomaly
0.7629°
Eccentric anomaly
0.79629°
Mean motion
3.43316 °/min
Orbital period
104.86 mins
BSTAR
0.0010257
Loading maneuver chart data...
Computing Atmospheric mass density...
Loading historical data...
Loading historical data...
Loading historical data...
Loading historical data...
Loading historical data...
Loading historical data...
Loading historical data...

Documentation

Showing up to 5 results
|